Location: Andiroba
(19.8650°S, 43.9258°W)
Time: 23:39:51
(UTC+00:00)

Atlas Centaur 2 - Pass Details

Date: 15 June 2024
Orbit: 457 x 1275 km, 30.4° (Epoch: 24 July)

Event Time Altitude Azimuth Distance (km) Brightness Sun altitude
Exits shadow 07:09:40 40° 78° (ENE) 991 2.9 -31.5°
Drops below altitude 10° 07:12:43 10° 104° (ESE) 1,957 4.8 -30.8°
Sets 07:14:50 0° 109° (ESE) 2,764 5.7 -30.3°
